Home   Weather   Jalandhar   Past weeks

Flag for India Past Weather in Jalandhar, Punjab, India — Yesterday and Last 2 Weeks

Now
75 °F

Fog.


Feels Like: 73 °F
Forecast: 76 / 98 °F
Wind: No wind

Location: Amritsar Airport

Current Time: Sep 25, 2016 at 7:42:08 AM

Latest Report: Sep 25, 2016 at 7:00 AM


Visibility: 1 mi

Pressure: 29.71 "Hg

Humidity: 100%

Dew Point: 75 °F

Location of JalandharLocation

Past Weather in Jalandhar — Graph

°F

Jalandhar Temperature Yesterday

Maximum temperature yesterday: 90 °F (at 12:30 PM)
Minimum temperature yesterday: 75 °F (at 4:30 AM)
Average temperature yesterday: 82 °F

High & Low Weather Summary for the Past Weeks

 TemperatureHumidityPressure
High95 °F (Sep 10, 1:00 PM)100% (Sep 10, 5:30 AM)29.92 "Hg (Sep 10, 5:30 AM)
Low73 °F (Sep 14, 7:00 AM)50% (Sep 10, 1:00 PM)29.59 "Hg (Sep 11, 4:00 PM)
Average84 °F85%29.71 "Hg
* Reported Sep 10 5:30 AM — Sep 25 6:00 AM, Jalandhar, Weather by CustomWeather, © 2016

Note: Actual official high and low records may vary slightly from our data, if they occured in-between our weather recording intervals... More about our weather records

Advertising

Jalandhar Weather History for the Previous 24 Hours

Scroll right to see more
 ConditionsComfort  
Time TempWeatherWind HumidityBarometerVisibility
6:00 AM
Sun, Sep 25
75 °FFog.No wind100%29.71 "Hg1 mi
5:30 AM77 °FFog.No wind100%29.71 "Hg1 mi
5:00 AM77 °FFog.No wind100%29.71 "Hg1 mi
4:30 AM77 °FFog.No wind100%29.68 "Hg1 mi
4:00 AM77 °FFog.No wind100%29.68 "Hg1 mi
3:00 AM77 °FFog.No wind100%29.68 "Hg1 mi
2:30 AM79 °FFog.No wind100%29.68 "Hg1 mi
2:00 AM79 °FFog.No wind100%29.68 "Hg1 mi
1:30 AM79 °FFog.No wind100%29.68 "Hg1 mi
1:00 AM79 °FFog.No wind100%29.68 "Hg1 mi
12:30 AM79 °FFog.No wind100%29.68 "Hg2 mi
12:00 AM81 °FFog.No wind100%29.68 "Hg2 mi
11:30 PM
Sat, Sep 24
79 °FFog.No wind100%29.68 "Hg2 mi
11:00 PM79 °FFog.No wind100%29.68 "Hg2 mi
10:30 PM81 °FFog.No wind100%29.68 "Hg2 mi
10:00 PM81 °FFog.No wind100%29.68 "Hg2 mi
9:30 PM81 °FFog.No wind100%29.65 "Hg2 mi
9:00 PM81 °FFog.No wind100%29.65 "Hg2 mi
8:30 PM81 °FFog.No wind100%29.65 "Hg2 mi
8:00 PM82 °FFog.No wind89%29.65 "Hg2 mi
7:30 PM84 °FFog.No wind79%29.62 "Hg2 mi
7:00 PM84 °FPassing clouds.2 mph74%29.62 "Hg2 mi
6:30 PM86 °FScattered clouds.No wind70%29.62 "Hg2 mi
6:00 PM86 °FScattered clouds.2 mph70%29.62 "Hg2 mi
5:30 PM88 °FScattered clouds.2 mph66%29.62 "Hg2 mi
5:00 PM88 °FScattered clouds.2 mph66%29.62 "Hg2 mi
2:00 PM88 °FScattered clouds.6 mph66%29.71 "Hg2 mi
1:30 PM88 °FScattered clouds.6 mph66%29.71 "Hg2 mi
1:00 PM90 °FScattered clouds.1 mph63%29.71 "Hg2 mi
12:30 PM90 °FHaze.2 mph63%29.74 "Hg2 mi
12:00 PM88 °FHaze.1 mph62%29.74 "Hg2 mi
11:30 AM88 °FHaze.1 mph66%29.74 "Hg2 mi
11:00 AM88 °FFog.No wind70%29.74 "Hg2 mi
10:30 AM88 °FFog.No wind70%29.74 "Hg2 mi
10:00 AM84 °FFog.No wind74%29.77 "Hg2 mi
9:30 AM84 °FFog.1 mph84%29.74 "Hg1 mi
9:00 AM82 °FFog.1 mph100%29.74 "Hg1 mi
7:30 AM77 °FFog.No wind100%29.74 "Hg1 mi
7:00 AM77 °FFog.No wind100%29.71 "Hg1 mi
Weather by CustomWeather, © 2016

See weather overviewHow to use our weather pages